Sigonella, Italy

8:45 PM CEST on March 29, 2017 (GMT +0200)
Sigonella

Weather History for LICZ - May, 2013

Change the Weather History Date:

Friday, May 3, 2013

  Actual Average Record
Temperature  
Mean Temperature 72 °F -  
Max Temperature 85 °F 79 °F 86 °F (2003)
Min Temperature 60 °F 54 °F 46 °F (2003)
Cooling Degree Days 8    
Growing Degree Days 22 (Base 50)    
Moisture  
Dew Point 60 °F    
Average Humidity 71    
Maximum Humidity 100    
Minimum Humidity 31    
Precipitation  
Precipitation 0.00 in 0.03 in - ()
Sea Level Pressure  
Sea Level Pressure 29.93 in    
Wind  
Wind Speed 7 mph ()    
Max Wind Speed 16 mph    
Max Gust Speed -    
Visibility 6.1 miles    
Events Rain    
Averages and records for this station are not official NWS values.
T = Trace of Precipitation, MM = Missing Value Source: Averaged Metar Reports

Daily Weather History Graph

Daily Weather History Graph

Search for Another Location

Airport or City:

Trip Planner

Search our weather history database for the weather conditions in past years. The results will help you decide how hot, cold, wet, or windy it might be!

Date:

Astronomy

May. 03, 2013 Rise Set
Actual Time 6:03 AM CEST 7:51 PM CEST
Civil Twilight 5:34 AM CEST 8:20 PM CEST
Nautical Twilight 5:00 AM CEST 8:54 PM CEST
Astronomical Twilight 4:24 AM CEST 9:31 PM CEST
Moon 2:08 AM CEST (5/3) 1:35 PM CEST (5/3)
Length of Visible Light 14h 45m
Length of Day
13h 48m
Last Quarter, 40% of the Moon is Illuminated
May 3
Last Quarter
May 10
New
May 18
First Quarter
May 25
Full
May 31
Last Quarter

Hourly Weather History & Observations

Time (CEST) Temp. Heat Index Dew Point Humidity Pressure Visibility Wind Dir Wind Speed Gust Speed Precip Events Conditions
12:55 AM 66.2 °F - 66.2 °F 100% 29.98 in 5.0 mi WNW 3.5 mph - N/A Rain Light Rain
1:55 AM 66.2 °F - 66.2 °F 100% 29.95 in 5.0 mi WSW 5.8 mph - N/A   Mostly Cloudy
2:00 AM 65 °F - 65 °F 100% 29.96 in 5 mi WSW 5.8 mph - - Rain Light Rain
2:55 AM 64.4 °F - 64.4 °F 100% 29.95 in 5.0 mi WNW 5.8 mph - N/A   Mostly Cloudy
3:55 AM 64.4 °F - 64.4 °F 100% 29.92 in 5.0 mi West 6.9 mph - N/A   Mostly Cloudy
4:55 AM 64.4 °F - 64.4 °F 100% 29.92 in 5.0 mi NW 5.8 mph - N/A   Mostly Cloudy
5:00 AM 64 °F - 64 °F 100% 29.92 in 5 mi NW 5.8 mph - -   Mist
5:55 AM 64.4 °F - 64.4 °F 100% 29.92 in 5.0 mi WSW 5.8 mph - N/A   Mostly Cloudy
6:55 AM 62.6 °F - 62.6 °F 100% 29.92 in 6.2 mi WNW 2.3 mph - N/A   Scattered Clouds
7:55 AM 66.2 °F - 62.6 °F 88% 29.92 in 6.2 mi NW 3.5 mph - N/A   Scattered Clouds
8:00 AM 67 °F - 62 °F 80% 29.93 in 6 mi NW 3.5 mph - -   Partly Cloudy
8:55 AM 69.8 °F - 66.2 °F 88% 29.92 in 6.2 mi WSW 5.8 mph - N/A   Partly Cloudy
9:55 AM 75.2 °F - 64.4 °F 69% 29.92 in 6.2 mi SSE 4.6 mph - N/A   Partly Cloudy
10:55 AM 80.6 °F 81.1 °F 59.0 °F 48% 29.92 in - East 10.4 mph - N/A   Clear
11:00 AM 81 °F - 58 °F 36% 29.94 in 7 mi East 10.4 mph - -  
11:55 AM 84.2 °F 83.5 °F 57.2 °F 40% 29.92 in 6.2 mi ENE 12.7 mph - N/A   Partly Cloudy
12:55 PM 84.2 °F 83.5 °F 57.2 °F 40% 29.92 in 6.2 mi East 12.7 mph - N/A   Partly Cloudy
1:55 PM 82.4 °F 82.0 °F 57.2 °F 42% 29.92 in 6.2 mi East 15.0 mph - N/A   Partly Cloudy
2:00 PM 83 °F - 57 °F 31% 29.94 in 7 mi East 15.0 mph - -   Scattered Clouds
2:55 PM 82.4 °F 82.0 °F 57.2 °F 42% 29.92 in 6.2 mi East 16.1 mph - N/A   Partly Cloudy
3:55 PM 73.4 °F - 60.8 °F 65% 29.92 in 6.2 mi ENE 15.0 mph - N/A Rain Light Rain
4:55 PM 78.8 °F - 59.0 °F 51% 29.89 in 6.2 mi East 16.1 mph - N/A   Partly Cloudy
5:00 PM 78 °F - 59 °F 42% 29.91 in 7 mi East 16.1 mph - - Rain Light Rain
5:55 PM 75.2 °F - 55.4 °F 50% 29.89 in 6.2 mi East 13.8 mph - N/A   Partly Cloudy
6:55 PM 73.4 °F - 57.2 °F 57% 29.92 in 6.2 mi East 10.4 mph - N/A   Scattered Clouds
7:55 PM 71.6 °F - 53.6 °F 53% 29.92 in 6.2 mi East 9.2 mph - N/A   Partly Cloudy
8:00 PM 72 °F - 53 °F 41% 29.92 in 8 mi East 9.2 mph - -   Partly Cloudy
8:55 PM 68.0 °F - 46.4 °F 46% 29.92 in 6.2 mi East 6.9 mph - N/A   Scattered Clouds
9:55 PM 66.2 °F - 60.8 °F 83% 29.92 in 6.2 mi ESE 6.9 mph - N/A   Partly Cloudy
10:55 PM 62.6 °F - 62.6 °F 100% 29.95 in 6.2 mi SSW 4.6 mph - N/A   Partly Cloudy
11:00 PM 63 °F - 62 °F 96% 29.96 in 9 mi SSW 4.6 mph - -   Scattered Clouds
11:55 PM 62.6 °F - 62.6 °F 100% 29.95 in 6.2 mi NW 2.3 mph - N/A   Partly Cloudy